Time,TemperatureF,DewpointF,PressureIn,WindDirection,WindDirectionDegrees,WindSpeedMPH,WindSpeedGustMPH,Humidity,HourlyPrecipIn,Conditions,Clouds,dailyrainin,SoftwareType,DateUTC
2013-02-08 00:00:00,45.0,43.1,27.82,East,90,0.0,0.0,93,0.00,,---,0.00,VWS V14.01,2013-02-08 05:00:00,
2013-02-08 00:05:00,44.8,42.9,27.85,East,90,0.0,0.0,93,0.00,,---,0.00,VWS V14.01,2013-02-08 05:05:00,
2013-02-08 00:10:00,44.6,42.7,27.85,East,90,0.0,0.0,93,0.00,,---,0.00,VWS V14.01,2013-02-08 05:10:00,
2013-02-08 00:15:00,44.2,42.3,27.85,East,90,0.0,0.0,93,0.00,,---,0.00,VWS V14.01,2013-02-08 05:15:00,
2013-02-08 00:20:00,44.2,42.6,27.82,East,90,0.0,0.0,94,0.00,,---,0.00,VWS V14.01,2013-02-08 05:20:00,
2013-02-08 00:25:00,44.1,42.5,27.82,East,90,0.0,0.0,94,0.00,,---,0.00,VWS V14.01,2013-02-08 05:25:00,
2013-02-08 00:31:00,43.9,42.0,27.82,East,90,0.0,0.0,93,0.00,,---,0.00,VWS V14.01,2013-02-08 05:31:00,
2013-02-08 00:36:00,43.7,42.1,27.82,East,90,0.0,0.0,94,0.00,,---,0.00,VWS V14.01,2013-02-08 05:36:00,
2013-02-08 00:41:00,43.5,41.9,27.82,East,90,0.0,0.0,94,0.00,,---,0.00,VWS V14.01,2013-02-08 05:41:00,
2013-02-08 00:46:00,43.5,41.9,27.82,East,90,0.0,0.0,94,0.00,,---,0.00,VWS V14.01,2013-02-08 05:46:00,
2013-02-08 00:51:00,43.7,42.1,27.82,East,90,0.0,0.0,94,0.00,,---,0.00,VWS V14.01,2013-02-08 05:51:00,
2013-02-08 00:56:00,43.9,42.3,27.82,East,90,0.0,0.0,94,0.00,,---,0.00,VWS V14.01,2013-02-08 05:56:00,
2013-02-08 01:01:00,44.1,42.5,27.82,East,90,0.0,0.0,94,0.00,,---,0.00,VWS V14.01,2013-02-08 06:01:00,
2013-02-08 01:06:00,44.1,42.5,27.82,East,90,0.0,0.0,94,0.00,,---,0.00,VWS V14.01,2013-02-08 06:06:00,
2013-02-08 01:11:00,44.2,42.9,27.82,East,90,0.0,0.0,95,0.00,,---,0.00,VWS V14.01,2013-02-08 06:11:00,
2013-02-08 01:16:00,44.4,43.1,27.82,East,90,0.0,0.0,95,0.00,,---,0.00,VWS V14.01,2013-02-08 06:16:00,
2013-02-08 01:21:00,44.6,43.0,27.82,East,90,0.0,0.0,94,0.00,,---,0.00,VWS V14.01,2013-02-08 06:21:00,
2013-02-08 01:26:00,44.8,43.2,27.82,SSE,158,0.0,0.0,94,0.00,,---,0.00,VWS V14.01,2013-02-08 06:26:00,
2013-02-08 01:31:00,44.8,43.2,27.82,South,180,0.0,0.0,94,0.00,,---,0.00,VWS V14.01,2013-02-08 06:31:00,
2013-02-08 01:36:00,44.8,43.2,27.82,South,180,0.0,0.0,94,0.00,,---,0.00,VWS V14.01,2013-02-08 06:36:00,
2013-02-08 01:42:00,44.8,43.2,27.82,SW,225,0.0,0.0,94,0.00,,---,0.00,VWS V14.01,2013-02-08 06:42:00,
2013-02-08 01:47:00,45.0,43.6,27.82,SSW,202,0.0,0.0,95,0.00,,---,0.00,VWS V14.01,2013-02-08 06:47:00,
2013-02-08 01:52:00,45.1,43.8,27.82,West,270,0.0,0.0,95,0.00,,---,0.00,VWS V14.01,2013-02-08 06:52:00,
2013-02-08 01:57:00,45.1,43.8,27.82,SSE,158,0.0,1.1,95,0.00,,---,0.00,VWS V14.01,2013-02-08 06:57:00,
2013-02-08 02:02:00,45.1,43.8,27.82,WNW,292,0.0,0.0,95,0.00,,---,0.00,VWS V14.01,2013-02-08 07:02:00,
2013-02-08 02:07:00,45.3,44.0,27.82,WSW,248,0.0,0.0,95,0.00,,---,0.00,VWS V14.01,2013-02-08 07:07:00,
2013-02-08 02:12:00,45.3,44.2,27.82,South,180,0.0,0.0,96,0.00,,---,0.00,VWS V14.01,2013-02-08 07:12:00,
2013-02-08 02:17:00,45.1,44.1,27.82,SW,225,0.0,0.0,96,0.00,,---,0.00,VWS V14.01,2013-02-08 07:17:00,
2013-02-08 02:22:00,45.3,44.2,27.82,West,270,0.0,0.0,96,0.00,,---,0.00,VWS V14.01,2013-02-08 07:22:00,
2013-02-08 02:27:00,45.3,44.2,27.82,WSW,248,2.0,2.0,96,0.00,,---,0.00,VWS V14.01,2013-02-08 07:27:00,
2013-02-08 02:32:00,45.3,44.2,27.82,WSW,248,0.0,0.0,96,0.00,,---,0.00,VWS V14.01,2013-02-08 07:32:00,
2013-02-08 02:37:00,45.3,44.2,27.82,SSW,202,0.9,0.9,96,0.00,,---,0.00,VWS V14.01,2013-02-08 07:37:00,
2013-02-08 02:42:00,45.3,44.2,27.82,SSW,202,0.0,1.1,96,0.00,,---,0.00,VWS V14.01,2013-02-08 07:42:00,
2013-02-08 02:47:00,45.3,44.2,27.82,WSW,248,0.0,0.0,96,0.00,,---,0.00,VWS V14.01,2013-02-08 07:47:00,
2013-02-08 02:52:00,45.3,44.2,27.82,SSW,202,0.0,0.0,96,0.00,,---,0.00,VWS V14.01,2013-02-08 07:52:00,
2013-02-08 02:58:00,45.3,44.2,27.82,SSE,158,0.0,0.0,96,0.00,,---,0.00,VWS V14.01,2013-02-08 07:58:00,
2013-02-08 03:03:00,45.3,44.2,27.82,WSW,248,0.0,0.9,96,0.00,,---,0.00,VWS V14.01,2013-02-08 08:03:00,
2013-02-08 03:08:00,45.3,44.2,27.82,SW,225,0.0,0.9,96,0.00,,---,0.00,VWS V14.01,2013-02-08 08:08:00,
2013-02-08 03:13:00,45.3,44.2,27.82,WSW,248,0.0,0.0,96,0.00,,---,0.00,VWS V14.01,2013-02-08 08:13:00,
2013-02-08 03:18:00,45.3,44.5,27.82,SSW,202,0.0,0.0,97,0.00,,---,0.00,VWS V14.01,2013-02-08 08:18:00,
2013-02-08 03:23:00,45.3,44.5,27.82,SSW,202,1.1,2.5,97,0.00,,---,0.00,VWS V14.01,2013-02-08 08:23:00,
2013-02-08 03:28:00,45.3,44.5,27.82,SW,225,1.1,1.1,97,0.00,,---,0.00,VWS V14.01,2013-02-08 08:28:00,
2013-02-08 03:33:00,45.3,44.5,27.82,WSW,248,0.0,1.6,97,0.00,,---,0.00,VWS V14.01,2013-02-08 08:33:00,
2013-02-08 03:38:00,45.3,44.5,27.82,SW,225,0.0,2.2,97,0.00,,---,0.00,VWS V14.01,2013-02-08 08:38:00,
2013-02-08 03:43:00,45.3,44.5,27.82,WSW,248,0.9,0.9,97,0.00,,---,0.00,VWS V14.01,2013-02-08 08:43:00,
2013-02-08 03:48:00,45.3,44.5,27.79,SE,135,0.0,1.6,97,0.00,,---,0.00,VWS V14.01,2013-02-08 08:48:00,
2013-02-08 03:53:00,45.3,44.5,27.79,SW,225,2.0,2.0,97,0.00,,---,0.00,VWS V14.01,2013-02-08 08:53:00,
2013-02-08 03:58:00,45.3,44.5,27.79,WNW,292,0.0,0.0,97,0.00,,---,0.00,VWS V14.01,2013-02-08 08:58:00,
2013-02-08 04:03:00,45.3,44.5,27.79,South,180,0.0,0.0,97,0.00,,---,0.00,VWS V14.01,2013-02-08 09:03:00,
2013-02-08 04:08:00,45.1,44.3,27.79,SSW,202,0.0,0.0,97,0.00,,---,0.00,VWS V14.01,2013-02-08 09:08:00,
2013-02-08 04:13:00,45.1,44.3,27.79,ESE,112,0.0,0.0,97,0.00,,---,0.00,VWS V14.01,2013-02-08 09:13:00,
2013-02-08 04:18:00,45.1,44.3,27.79,SSE,158,0.0,0.0,97,0.00,,---,0.00,VWS V14.01,2013-02-08 09:18:00,
2013-02-08 04:23:00,45.1,44.3,27.79,SSE,158,0.0,0.0,97,0.00,,---,0.00,VWS V14.01,2013-02-08 09:23:00,
2013-02-08 04:28:00,45.1,44.3,27.79,South,180,0.0,1.1,97,0.00,,---,0.00,VWS V14.01,2013-02-08 09:28:00,
2013-02-08 04:33:00,45.0,44.2,27.79,East,90,1.3,2.0,97,0.00,,---,0.00,VWS V14.01,2013-02-08 09:33:00,
2013-02-08 04:38:00,45.0,44.2,27.79,SSW,202,1.6,1.6,97,0.00,,---,0.00,VWS V14.01,2013-02-08 09:38:00,
2013-02-08 04:43:00,45.0,44.2,27.79,South,180,1.1,1.1,97,0.00,,---,0.00,VWS V14.01,2013-02-08 09:43:00,
2013-02-08 04:49:00,45.0,44.2,27.79,SW,225,2.9,2.9,97,0.00,,---,0.00,VWS V14.01,2013-02-08 09:49:00,
2013-02-08 04:54:00,44.8,44.0,27.79,SSE,158,2.0,2.0,97,0.00,,---,0.00,VWS V14.01,2013-02-08 09:54:00,
2013-02-08 04:59:00,44.8,44.0,27.79,SSE,158,0.0,0.0,97,0.00,,---,0.00,VWS V14.01,2013-02-08 09:59:00,
2013-02-08 05:04:00,44.8,44.0,27.79,SW,225,0.9,0.9,97,0.00,,---,0.00,VWS V14.01,2013-02-08 10:04:00,
2013-02-08 05:09:00,44.8,44.0,27.79,SSW,202,1.6,2.0,97,0.00,,---,0.00,VWS V14.01,2013-02-08 10:09:00,
2013-02-08 05:14:00,44.8,44.0,27.79,SSE,158,0.0,2.2,97,0.00,,---,0.00,VWS V14.01,2013-02-08 10:14:00,
2013-02-08 05:19:00,44.8,44.0,27.82,SW,225,0.0,1.3,97,0.00,,---,0.00,VWS V14.01,2013-02-08 10:19:00,
2013-02-08 05:24:00,44.8,44.0,27.82,SSE,158,0.9,0.9,97,0.00,,---,0.00,VWS V14.01,2013-02-08 10:24:00,
2013-02-08 05:29:00,44.8,44.0,27.82,SW,225,0.0,0.0,97,0.00,,---,0.00,VWS V14.01,2013-02-08 10:29:00,
2013-02-08 05:34:00,44.8,44.0,27.82,South,180,0.0,0.0,97,0.00,,---,0.00,VWS V14.01,2013-02-08 10:34:00,
2013-02-08 05:39:00,44.8,44.0,27.82,ESE,112,0.0,0.0,97,0.00,,---,0.00,VWS V14.01,2013-02-08 10:39:00,
2013-02-08 05:44:00,44.8,44.0,27.82,SE,135,0.0,0.0,97,0.00,,---,0.00,VWS V14.01,2013-02-08 10:44:00,
2013-02-08 05:49:00,44.8,44.0,27.82,SSE,158,0.0,0.9,97,0.00,,---,0.00,VWS V14.01,2013-02-08 10:49:00,
2013-02-08 05:54:00,44.8,44.0,27.82,SSE,158,0.0,1.1,97,0.00,,---,0.00,VWS V14.01,2013-02-08 10:54:00,
2013-02-08 05:59:00,44.8,44.0,27.82,SSW,202,1.6,1.6,97,0.00,,---,0.00,VWS V14.01,2013-02-08 10:59:00,
2013-02-08 06:05:00,44.8,44.0,27.82,SE,135,1.1,2.0,97,0.00,,---,0.00,VWS V14.01,2013-02-08 11:05:00,
2013-02-08 06:10:00,44.8,44.0,27.82,South,180,0.0,0.0,97,0.00,,---,0.00,VWS V14.01,2013-02-08 11:10:00,
2013-02-08 06:15:00,44.8,44.0,27.82,SSW,202,0.0,0.0,97,0.00,,---,0.00,VWS V14.01,2013-02-08 11:15:00,
2013-02-08 06:20:00,44.8,44.0,27.82,South,180,0.0,0.0,97,0.00,,---,0.00,VWS V14.01,2013-02-08 11:20:00,
2013-02-08 06:25:00,44.8,44.0,27.82,West,270,0.0,0.0,97,0.00,,---,0.00,VWS V14.01,2013-02-08 11:25:00,
2013-02-08 06:30:00,44.8,44.0,27.82,SSW,202,0.0,0.0,97,0.00,,---,0.00,VWS V14.01,2013-02-08 11:30:00,
2013-02-08 06:35:00,44.8,44.0,27.82,ESE,112,0.0,0.0,97,0.00,,---,0.00,VWS V14.01,2013-02-08 11:35:00,
2013-02-08 06:40:00,44.8,44.0,27.82,WSW,248,0.0,0.0,97,0.00,,---,0.00,VWS V14.01,2013-02-08 11:40:00,
2013-02-08 06:45:00,44.8,44.0,27.82,SSE,158,0.0,0.0,97,0.00,,---,0.00,VWS V14.01,2013-02-08 11:45:00,
2013-02-08 06:50:00,44.8,44.0,27.82,NW,315,0.0,0.0,97,0.00,,---,0.00,VWS V14.01,2013-02-08 11:50:00,
2013-02-08 06:55:00,44.8,44.0,27.82,SW,225,0.0,0.0,97,0.00,,---,0.00,VWS V14.01,2013-02-08 11:55:00,
2013-02-08 07:00:00,44.8,44.0,27.82,West,270,0.0,0.0,97,0.00,,---,0.00,VWS V14.01,2013-02-08 12:00:00,
2013-02-08 07:05:00,44.8,44.0,27.85,WSW,248,0.0,0.0,97,0.00,,---,0.00,VWS V14.01,2013-02-08 12:05:00,
2013-02-08 07:10:00,44.6,43.8,27.85,SSW,202,0.0,2.0,97,0.00,,---,0.00,VWS V14.01,2013-02-08 12:10:00,
2013-02-08 07:15:00,44.6,43.8,27.85,SW,225,0.9,2.0,97,0.00,,---,0.00,VWS V14.01,2013-02-08 12:15:00,
2013-02-08 07:20:00,44.6,43.8,27.85,South,180,0.0,0.0,97,0.00,,---,0.00,VWS V14.01,2013-02-08 12:20:00,
2013-02-08 07:25:00,44.4,43.9,27.85,WNW,292,1.6,2.0,98,0.00,,---,0.00,VWS V14.01,2013-02-08 12:25:00,
2013-02-08 07:30:00,44.4,43.9,27.85,West,270,0.0,0.0,98,0.00,,---,0.00,VWS V14.01,2013-02-08 12:30:00,
2013-02-08 07:35:00,44.6,43.8,27.85,SW,225,0.0,1.3,97,0.00,,---,0.00,VWS V14.01,2013-02-08 12:35:00,
2013-02-08 07:40:00,44.6,44.1,27.85,East,90,0.0,0.0,98,0.00,,---,0.00,VWS V14.01,2013-02-08 12:40:00,
2013-02-08 07:45:00,44.4,43.9,27.85,WSW,248,0.0,0.0,98,0.00,,---,0.00,VWS V14.01,2013-02-08 12:45:00,
2013-02-08 07:50:00,44.4,43.9,27.85,WSW,248,0.0,0.0,98,0.00,,---,0.00,VWS V14.01,2013-02-08 12:50:00,
2013-02-08 07:55:00,44.2,43.7,27.85,East,90,1.1,1.1,98,0.00,,---,0.00,VWS V14.01,2013-02-08 12:55:00,
2013-02-08 08:00:00,44.2,43.7,27.85,West,270,2.7,2.7,98,0.00,,---,0.00,VWS V14.01,2013-02-08 13:00:00,
2013-02-08 08:05:00,44.2,43.7,27.85,SSE,158,2.0,2.9,98,0.00,,---,0.00,VWS V14.01,2013-02-08 13:05:00,
2013-02-08 08:10:00,44.2,43.7,27.85,West,270,2.5,2.5,98,0.00,,---,0.00,VWS V14.01,2013-02-08 13:10:00,
2013-02-08 08:15:00,44.2,43.7,27.85,WSW,248,0.0,0.0,98,0.00,,---,0.00,VWS V14.01,2013-02-08 13:15:00,
2013-02-08 08:20:00,44.2,43.7,27.88,WSW,248,2.5,2.5,98,0.00,,---,0.00,VWS V14.01,2013-02-08 13:20:00,
2013-02-08 08:25:00,44.2,43.7,27.88,NNE,22,0.9,0.9,98,0.00,,---,0.00,VWS V14.01,2013-02-08 13:25:00,
2013-02-08 08:30:00,44.2,43.7,27.88,ENE,68,0.0,1.6,98,0.00,,---,0.00,VWS V14.01,2013-02-08 13:30:00,
2013-02-08 08:35:00,44.2,43.7,27.88,West,270,1.1,1.1,98,0.00,,---,0.00,VWS V14.01,2013-02-08 13:35:00,
2013-02-08 08:40:00,44.2,43.7,27.88,WNW,292,0.0,0.0,98,0.00,,---,0.00,VWS V14.01,2013-02-08 13:40:00,
2013-02-08 08:45:00,44.2,43.7,27.88,North,0,0.0,0.0,98,0.00,,---,0.00,VWS V14.01,2013-02-08 13:45:00,
2013-02-08 08:50:00,44.2,43.7,27.88,West,270,0.0,0.0,98,0.00,,---,0.00,VWS V14.01,2013-02-08 13:50:00,
2013-02-08 08:55:00,44.2,43.7,27.88,WNW,292,0.0,0.0,98,0.00,,---,0.00,VWS V14.01,2013-02-08 13:55:00,
2013-02-08 09:01:00,44.2,43.7,27.88,NE,45,0.0,1.6,98,0.00,,---,0.00,VWS V14.01,2013-02-08 14:01:00,
2013-02-08 09:06:00,44.2,43.7,27.88,WSW,248,0.0,1.6,98,0.00,,---,0.00,VWS V14.01,2013-02-08 14:06:00,
2013-02-08 09:11:00,44.4,43.9,27.88,WSW,248,0.0,0.0,98,0.00,,---,0.00,VWS V14.01,2013-02-08 14:11:00,
2013-02-08 09:16:00,44.2,43.7,27.88,NE,45,0.0,0.0,98,0.00,,---,0.00,VWS V14.01,2013-02-08 14:16:00,
2013-02-08 09:21:00,44.4,43.9,27.88,SSE,158,0.0,0.0,98,0.00,,---,0.00,VWS V14.01,2013-02-08 14:21:00,
2013-02-08 09:26:00,44.4,43.9,27.88,West,270,0.0,1.1,98,0.00,,---,0.00,VWS V14.01,2013-02-08 14:26:00,
2013-02-08 09:31:00,44.6,44.1,27.88,NE,45,0.0,0.0,98,0.00,,---,0.00,VWS V14.01,2013-02-08 14:31:00,
2013-02-08 09:36:00,44.6,44.1,27.88,North,0,0.0,0.0,98,0.00,,---,0.00,VWS V14.01,2013-02-08 14:36:00,
2013-02-08 09:41:00,45.1,44.6,27.88,NE,45,0.0,0.0,98,0.00,,---,0.00,VWS V14.01,2013-02-08 14:41:00,
2013-02-08 09:46:00,45.5,45.0,27.88,NNE,22,0.0,0.0,98,0.00,,---,0.00,VWS V14.01,2013-02-08 14:46:00,
2013-02-08 09:51:00,45.7,45.2,27.88,SE,135,0.0,0.0,98,0.00,,---,0.00,VWS V14.01,2013-02-08 14:51:00,
2013-02-08 09:56:00,45.9,45.3,27.88,ENE,68,0.0,0.0,98,0.00,,---,0.00,VWS V14.01,2013-02-08 14:56:00,
2013-02-08 10:01:00,46.2,45.7,27.88,NNE,22,0.0,0.9,98,0.00,,---,0.00,VWS V14.01,2013-02-08 15:01:00,
2013-02-08 10:06:00,46.4,45.9,27.88,WSW,248,0.0,0.0,98,0.00,,---,0.00,VWS V14.01,2013-02-08 15:06:00,
2013-02-08 10:11:00,46.6,46.0,27.88,ENE,68,0.0,0.0,98,0.00,,---,0.00,VWS V14.01,2013-02-08 15:11:00,
2013-02-08 10:16:00,46.6,46.0,27.88,WNW,292,0.0,0.0,98,0.00,,---,0.00,VWS V14.01,2013-02-08 15:16:00,
2013-02-08 10:21:00,46.8,46.2,27.90,ENE,68,0.0,0.0,98,0.00,,---,0.00,VWS V14.01,2013-02-08 15:21:00,
2013-02-08 10:26:00,46.6,46.0,27.90,South,180,2.7,2.7,98,0.00,,---,0.00,VWS V14.01,2013-02-08 15:26:00,
2013-02-08 10:31:00,46.6,45.8,27.90,NE,45,0.0,0.9,97,0.00,,---,0.00,VWS V14.01,2013-02-08 15:31:00,
2013-02-08 10:37:00,46.8,46.2,27.90,NNE,22,1.3,1.6,98,0.00,,---,0.00,VWS V14.01,2013-02-08 15:37:00,
2013-02-08 10:42:00,46.8,46.0,27.90,ENE,68,0.0,1.6,97,0.00,,---,0.00,VWS V14.01,2013-02-08 15:42:00,
2013-02-08 10:47:00,46.6,45.8,27.90,NNE,22,0.0,0.9,97,0.00,,---,0.00,VWS V14.01,2013-02-08 15:47:00,
2013-02-08 10:52:00,46.6,45.8,27.90,ESE,112,0.0,0.0,97,0.00,,---,0.00,VWS V14.01,2013-02-08 15:52:00,
2013-02-08 10:57:00,46.6,45.8,27.90,West,270,0.0,1.3,97,0.00,,---,0.00,VWS V14.01,2013-02-08 15:57:00,
2013-02-08 11:02:00,46.6,45.8,27.90,NE,45,1.6,1.6,97,0.00,,---,0.00,VWS V14.01,2013-02-08 16:02:00,
2013-02-08 11:07:00,46.6,45.8,27.90,SE,135,2.0,2.0,97,0.00,,---,0.00,VWS V14.01,2013-02-08 16:07:00,
2013-02-08 11:12:00,46.4,45.6,27.90,NE,45,2.9,2.9,97,0.00,,---,0.00,VWS V14.01,2013-02-08 16:12:00,
2013-02-08 11:17:00,46.8,46.0,27.90,SE,135,0.0,0.0,97,0.00,,---,0.00,VWS V14.01,2013-02-08 16:17:00,
2013-02-08 11:22:00,46.4,45.3,27.90,ENE,68,1.1,2.0,96,0.00,,---,0.00,VWS V14.01,2013-02-08 16:22:00,
2013-02-08 11:27:00,46.0,45.0,27.90,East,90,0.9,0.9,96,0.00,,---,0.00,VWS V14.01,2013-02-08 16:27:00,
2013-02-08 11:32:00,46.4,45.3,27.90,NE,45,0.0,0.0,96,0.00,,---,0.00,VWS V14.01,2013-02-08 16:32:00,
2013-02-08 11:37:00,46.6,45.2,27.90,East,90,0.9,2.0,95,0.00,,---,0.00,VWS V14.01,2013-02-08 16:37:00,
2013-02-08 11:42:00,46.6,45.0,27.90,South,180,0.0,0.0,94,0.00,,---,0.00,VWS V14.01,2013-02-08 16:42:00,
2013-02-08 11:47:00,46.2,44.6,27.90,SSE,158,3.4,3.4,94,0.00,,---,0.00,VWS V14.01,2013-02-08 16:47:00,
2013-02-08 11:52:00,46.2,44.6,27.90,NNE,22,0.0,0.0,94,0.00,,---,0.00,VWS V14.01,2013-02-08 16:52:00,
2013-02-08 11:57:00,45.9,44.0,27.90,NE,45,2.0,2.0,93,0.00,,---,0.00,VWS V14.01,2013-02-08 16:57:00,
2013-02-08 12:02:00,45.9,44.0,27.90,NNE,22,0.0,0.9,93,0.00,,---,0.00,VWS V14.01,2013-02-08 17:02:00,
2013-02-08 12:07:00,45.5,43.6,27.90,WNW,292,0.0,0.0,93,0.00,,---,0.00,VWS V14.01,2013-02-08 17:07:00,
2013-02-08 12:12:00,45.5,43.6,27.90,WNW,292,1.6,1.6,93,0.00,,---,0.00,VWS V14.01,2013-02-08 17:12:00,
2013-02-08 12:17:00,45.9,44.0,27.90,WSW,248,0.0,0.0,93,0.00,,---,0.00,VWS V14.01,2013-02-08 17:17:00,
2013-02-08 12:23:00,45.5,43.3,27.90,SE,135,0.0,0.0,92,0.00,,---,0.00,VWS V14.01,2013-02-08 17:23:00,
2013-02-08 12:28:00,45.9,43.7,27.90,East,90,2.9,2.9,92,0.00,,---,0.00,VWS V14.01,2013-02-08 17:28:00,
2013-02-08 12:33:00,45.9,43.7,27.90,East,90,2.0,3.4,92,0.00,,---,0.00,VWS V14.01,2013-02-08 17:33:00,
2013-02-08 12:38:00,46.2,43.5,27.90,WNW,292,2.0,2.0,90,0.00,,---,0.00,VWS V14.01,2013-02-08 17:38:00,
2013-02-08 12:43:00,47.3,43.3,27.90,ENE,68,1.1,2.9,86,0.00,,---,0.00,VWS V14.01,2013-02-08 17:43:00,
2013-02-08 12:48:00,48.4,43.5,27.90,North,0,0.9,0.9,83,0.00,,---,0.00,VWS V14.01,2013-02-08 17:48:00,
2013-02-08 12:53:00,49.3,42.4,27.90,West,270,1.3,2.0,77,0.00,,---,0.00,VWS V14.01,2013-02-08 17:53:00,
2013-02-08 12:58:00,49.6,41.7,27.90,ESE,112,3.8,3.8,74,0.00,,---,0.00,VWS V14.01,2013-02-08 17:58:00,
2013-02-08 13:03:00,50.0,41.0,27.90,WSW,248,3.1,3.1,71,0.00,,---,0.00,VWS V14.01,2013-02-08 18:03:00,
2013-02-08 13:08:00,50.4,40.6,27.90,ESE,112,0.9,2.9,69,0.00,,---,0.00,VWS V14.01,2013-02-08 18:08:00,
2013-02-08 13:13:00,51.3,41.5,27.90,ESE,112,0.0,0.0,69,0.00,,---,0.00,VWS V14.01,2013-02-08 18:13:00,
2013-02-08 13:18:00,51.4,41.2,27.93,ENE,68,2.2,2.2,68,0.00,,---,0.00,VWS V14.01,2013-02-08 18:18:00,
2013-02-08 13:23:00,51.3,39.5,27.93,SE,135,2.9,2.9,64,0.00,,---,0.00,VWS V14.01,2013-02-08 18:23:00,
2013-02-08 13:28:00,51.6,39.5,27.93,NNE,22,2.7,2.7,63,0.00,,---,0.00,VWS V14.01,2013-02-08 18:28:00,
2013-02-08 13:34:00,51.3,38.7,27.90,East,90,3.6,4.7,62,0.00,,---,0.00,VWS V14.01,2013-02-08 18:34:00,
2013-02-08 13:39:00,51.4,38.0,27.90,East,90,2.7,2.7,60,0.00,,---,0.00,VWS V14.01,2013-02-08 18:39:00,
2013-02-08 13:44:00,51.6,37.3,27.90,SSE,158,2.9,3.6,58,0.00,,---,0.00,VWS V14.01,2013-02-08 18:44:00,
2013-02-08 13:49:00,51.6,36.9,27.93,North,0,3.1,3.1,57,0.00,,---,0.00,VWS V14.01,2013-02-08 18:49:00,
2013-02-08 13:54:00,52.2,37.0,27.93,East,90,3.1,3.1,56,0.00,,---,0.00,VWS V14.01,2013-02-08 18:54:00,
2013-02-08 13:59:00,53.1,37.3,27.93,NNE,22,0.0,3.8,55,0.00,,---,0.00,VWS V14.01,2013-02-08 18:59:00,
2013-02-08 14:04:00,52.9,36.2,27.93,NE,45,3.6,3.6,53,0.00,,---,0.00,VWS V14.01,2013-02-08 19:04:00,
2013-02-08 14:09:00,52.9,36.2,27.93,NW,315,0.0,0.0,53,0.00,,---,0.00,VWS V14.01,2013-02-08 19:09:00,
2013-02-08 14:14:00,52.7,35.6,27.93,NNE,22,2.7,2.7,52,0.00,,---,0.00,VWS V14.01,2013-02-08 19:14:00,
2013-02-08 14:19:00,52.7,36.1,27.93,SSE,158,0.9,1.3,53,0.00,,---,0.00,VWS V14.01,2013-02-08 19:19:00,
2013-02-08 14:24:00,52.9,35.8,27.93,ESE,112,2.7,2.7,52,0.00,,---,0.00,VWS V14.01,2013-02-08 19:24:00,
2013-02-08 14:29:00,51.8,34.8,27.93,SE,135,3.6,3.6,52,0.00,,---,0.00,VWS V14.01,2013-02-08 19:29:00,
2013-02-08 14:34:00,50.9,34.4,27.93,SE,135,3.1,3.1,53,0.00,,---,0.00,VWS V14.01,2013-02-08 19:34:00,
2013-02-08 14:39:00,50.0,33.6,27.93,ENE,68,6.0,6.0,53,0.00,,---,0.00,VWS V14.01,2013-02-08 19:39:00,
2013-02-08 14:44:00,50.2,34.2,27.93,North,0,2.7,2.7,54,0.00,,---,0.00,VWS V14.01,2013-02-08 19:44:00,
2013-02-08 14:50:00,49.8,34.3,27.93,ENE,68,2.5,2.5,55,0.00,,---,0.00,VWS V14.01,2013-02-08 19:50:00,
2013-02-08 14:55:00,49.8,33.9,27.93,WSW,248,3.1,3.1,54,0.00,,---,0.00,VWS V14.01,2013-02-08 19:55:00,
2013-02-08 15:00:00,49.5,33.5,27.93,SSE,158,2.7,3.8,54,0.00,,---,0.00,VWS V14.01,2013-02-08 20:00:00,
2013-02-08 15:05:00,50.0,34.0,27.93,SE,135,0.0,3.4,54,0.00,,---,0.00,VWS V14.01,2013-02-08 20:05:00,
2013-02-08 15:10:00,50.2,34.2,27.93,ENE,68,2.5,2.5,54,0.00,,---,0.00,VWS V14.01,2013-02-08 20:10:00,
2013-02-08 15:15:00,49.1,32.7,27.93,SE,135,3.1,3.1,53,0.00,,---,0.00,VWS V14.01,2013-02-08 20:15:00,
2013-02-08 15:20:00,49.5,33.5,27.93,NNW,338,0.0,0.0,54,0.00,,---,0.00,VWS V14.01,2013-02-08 20:20:00,
2013-02-08 15:25:00,49.3,33.4,27.93,WSW,248,2.0,2.0,54,0.00,,---,0.00,VWS V14.01,2013-02-08 20:25:00,
2013-02-08 15:30:00,48.9,33.0,27.93,WSW,248,2.0,2.0,54,0.00,,---,0.00,VWS V14.01,2013-02-08 20:30:00,
2013-02-08 15:35:00,48.7,32.8,27.96,ENE,68,4.9,4.9,54,0.00,,---,0.00,VWS V14.01,2013-02-08 20:35:00,
2013-02-08 15:40:00,48.2,31.9,27.96,SW,225,2.0,2.0,53,0.00,,---,0.00,VWS V14.01,2013-02-08 20:40:00,
2013-02-08 15:45:00,48.0,31.7,27.96,ESE,112,4.7,4.7,53,0.00,,---,0.00,VWS V14.01,2013-02-08 20:45:00,
2013-02-08 15:50:00,47.7,31.4,27.96,ESE,112,4.7,4.7,53,0.00,,---,0.00,VWS V14.01,2013-02-08 20:50:00,
2013-02-08 15:55:00,47.8,31.5,27.96,East,90,2.7,4.7,53,0.00,,---,0.00,VWS V14.01,2013-02-08 20:55:00,
2013-02-08 16:00:00,48.4,32.0,27.96,NNE,22,1.6,1.6,53,0.00,,---,0.00,VWS V14.01,2013-02-08 21:00:00,
2013-02-08 16:05:00,47.7,31.4,27.96,NNE,22,1.6,1.6,53,0.00,,---,0.00,VWS V14.01,2013-02-08 21:05:00,
2013-02-08 16:10:00,47.5,31.7,27.96,NNE,22,1.6,1.6,54,0.00,,---,0.00,VWS V14.01,2013-02-08 21:10:00,
2013-02-08 16:16:00,46.2,30.0,27.96,East,90,3.6,3.6,53,0.00,,---,0.00,VWS V14.01,2013-02-08 21:16:00,
2013-02-08 16:21:00,46.4,30.2,27.96,NNE,22,2.0,2.0,53,0.00,,---,0.00,VWS V14.01,2013-02-08 21:21:00,
2013-02-08 16:26:00,45.5,29.4,27.96,NE,45,3.6,3.6,53,0.00,,---,0.00,VWS V14.01,2013-02-08 21:26:00,
2013-02-08 16:31:00,45.3,29.2,27.96,NE,45,3.6,3.6,53,0.00,,---,0.00,VWS V14.01,2013-02-08 21:31:00,
2013-02-08 16:36:00,45.3,29.7,27.96,NW,315,2.0,3.6,54,0.00,,---,0.00,VWS V14.01,2013-02-08 21:36:00,
2013-02-08 16:41:00,45.7,30.0,27.96,South,180,2.9,2.9,54,0.00,,---,0.00,VWS V14.01,2013-02-08 21:41:00,
2013-02-08 16:46:00,44.8,29.2,27.96,NNE,22,0.9,0.9,54,0.00,,---,0.00,VWS V14.01,2013-02-08 21:46:00,
2013-02-08 16:51:00,44.4,29.3,27.96,NNE,22,0.9,0.9,55,0.00,,---,0.00,VWS V14.01,2013-02-08 21:51:00,
2013-02-08 16:56:00,44.4,29.3,27.96,NNE,22,0.9,0.9,55,0.00,,---,0.00,VWS V14.01,2013-02-08 21:56:00,
2013-02-08 17:01:00,44.4,29.3,27.96,NNE,22,0.9,0.9,55,0.00,,---,0.00,VWS V14.01,2013-02-08 22:01:00,
2013-02-08 17:06:00,44.1,28.9,27.99,NNE,22,0.9,0.9,55,0.00,,---,0.00,VWS V14.01,2013-02-08 22:06:00,
2013-02-08 17:11:00,44.1,29.4,27.99,NNE,22,0.9,0.9,56,0.00,,---,0.00,VWS V14.01,2013-02-08 22:11:00,
2013-02-08 17:16:00,43.9,29.2,27.99,NNE,22,0.9,0.9,56,0.00,,---,0.00,VWS V14.01,2013-02-08 22:16:00,
2013-02-08 17:21:00,43.0,28.8,27.99,NNE,22,0.9,0.9,57,0.00,,---,0.00,VWS V14.01,2013-02-08 22:21:00,
2013-02-08 17:26:00,42.6,29.3,27.99,NNE,22,0.9,0.9,59,0.00,,---,0.00,VWS V14.01,2013-02-08 22:26:00,
2013-02-08 17:31:00,41.5,28.3,27.99,NNE,22,0.9,0.9,59,0.00,,---,0.00,VWS V14.01,2013-02-08 22:31:00,
2013-02-08 17:36:00,41.0,28.6,27.99,NNE,22,0.9,0.9,61,0.00,,---,0.00,VWS V14.01,2013-02-08 22:36:00,
2013-02-08 17:41:00,40.3,29.1,27.99,NNE,22,0.9,0.9,64,0.00,,---,0.00,VWS V14.01,2013-02-08 22:41:00,
2013-02-08 17:46:00,39.9,29.1,27.99,NNE,22,0.9,0.9,65,0.00,,---,0.00,VWS V14.01,2013-02-08 22:46:00,
2013-02-08 17:52:00,39.2,29.2,27.99,NNE,22,0.9,0.9,67,0.00,,---,0.00,VWS V14.01,2013-02-08 22:52:00,
2013-02-08 17:57:00,38.8,29.5,27.99,NNE,22,0.9,0.9,69,0.00,,---,0.00,VWS V14.01,2013-02-08 22:57:00,
2013-02-08 18:02:00,38.5,29.2,28.02,NNE,22,0.9,0.9,69,0.00,,---,0.00,VWS V14.01,2013-02-08 23:02:00,
2013-02-08 18:07:00,37.9,29.0,28.02,NNE,22,0.9,0.9,70,0.00,,---,0.00,VWS V14.01,2013-02-08 23:07:00,
2013-02-08 18:12:00,37.8,28.9,28.02,NNE,22,0.9,0.9,70,0.00,,---,0.00,VWS V14.01,2013-02-08 23:12:00,
2013-02-08 18:17:00,37.6,29.0,28.02,NNE,22,0.9,0.9,71,0.00,,---,0.00,VWS V14.01,2013-02-08 23:17:00,
2013-02-08 18:22:00,37.0,29.2,28.02,NNE,22,0.9,0.9,73,0.00,,---,0.00,VWS V14.01,2013-02-08 23:22:00,
2013-02-08 18:27:00,36.9,29.0,28.02,NNE,22,0.9,0.9,73,0.00,,---,0.00,VWS V14.01,2013-02-08 23:27:00,
2013-02-08 18:32:00,36.9,29.4,28.02,NNE,22,0.9,0.9,74,0.00,,---,0.00,VWS V14.01,2013-02-08 23:32:00,
2013-02-08 18:37:00,36.9,29.4,28.02,NNE,22,0.9,0.9,74,0.00,,---,0.00,VWS V14.01,2013-02-08 23:37:00,
2013-02-08 18:42:00,36.9,29.4,28.02,NNE,22,0.9,0.9,74,0.00,,---,0.00,VWS V14.01,2013-02-08 23:42:00,
2013-02-08 18:47:00,36.1,28.7,28.02,NNE,22,0.9,0.9,74,0.00,,---,0.00,VWS V14.01,2013-02-08 23:47:00,
2013-02-08 18:52:00,36.0,28.8,28.02,NNE,22,0.9,0.9,75,0.00,,---,0.00,VWS V14.01,2013-02-08 23:52:00,
2013-02-08 18:57:00,35.6,28.5,28.02,NNE,22,0.9,0.9,75,0.00,,---,0.00,VWS V14.01,2013-02-08 23:57:00,
2013-02-08 19:03:00,35.4,28.3,28.02,NNE,22,0.9,0.9,75,0.00,,---,0.00,VWS V14.01,2013-02-09 00:03:00,
2013-02-08 19:08:00,35.4,28.3,28.02,NE,45,0.9,0.9,75,0.00,,---,0.00,VWS V14.01,2013-02-09 00:08:00,
2013-02-08 19:13:00,35.1,28.3,28.02,West,270,1.1,2.5,76,0.00,,---,0.00,VWS V14.01,2013-02-09 00:13:00,
2013-02-08 19:18:00,34.9,28.1,28.02,NNW,338,0.0,0.0,76,0.00,,---,0.00,VWS V14.01,2013-02-09 00:18:00,
2013-02-08 19:23:00,34.7,27.9,28.02,South,180,1.1,2.0,76,0.00,,---,0.00,VWS V14.01,2013-02-09 00:23:00,
2013-02-08 19:28:00,34.7,27.9,28.02,East,90,2.7,3.1,76,0.00,,---,0.00,VWS V14.01,2013-02-09 00:28:00,
2013-02-08 19:33:00,34.5,27.8,28.02,NW,315,2.9,2.9,76,0.00,,---,0.00,VWS V14.01,2013-02-09 00:33:00,
2013-02-08 19:38:00,34.3,27.6,28.02,WSW,248,1.1,1.1,76,0.00,,---,0.00,VWS V14.01,2013-02-09 00:38:00,
2013-02-08 19:43:00,34.3,27.6,28.02,ESE,112,2.0,2.0,76,0.00,,---,0.00,VWS V14.01,2013-02-09 00:43:00,
2013-02-08 19:48:00,34.2,27.4,28.02,South,180,0.0,0.0,76,0.00,,---,0.00,VWS V14.01,2013-02-09 00:48:00,
2013-02-08 19:53:00,34.0,27.2,28.02,South,180,0.0,0.0,76,0.00,,---,0.00,VWS V14.01,2013-02-09 00:53:00,
2013-02-08 19:58:00,34.0,27.2,28.02,South,180,0.0,0.0,76,0.00,,---,0.00,VWS V14.01,2013-02-09 00:58:00,
2013-02-08 20:03:00,34.0,27.2,28.02,South,180,0.0,0.0,76,0.00,,---,0.00,VWS V14.01,2013-02-09 01:03:00,
2013-02-08 20:08:00,34.0,27.2,28.02,South,180,0.0,0.0,76,0.00,,---,0.00,VWS V14.01,2013-02-09 01:08:00,
2013-02-08 20:13:00,34.0,27.2,28.02,South,180,0.0,0.0,76,0.00,,---,0.00,VWS V14.01,2013-02-09 01:13:00,
2013-02-08 20:18:00,33.8,27.0,28.05,South,180,0.0,0.0,76,0.00,,---,0.00,VWS V14.01,2013-02-09 01:18:00,
2013-02-08 20:23:00,34.0,27.5,28.05,South,180,0.0,0.0,77,0.00,,---,0.00,VWS V14.01,2013-02-09 01:23:00,
2013-02-08 20:28:00,34.0,27.5,28.05,NNW,338,0.9,0.9,77,0.00,,---,0.00,VWS V14.01,2013-02-09 01:28:00,
2013-02-08 20:33:00,34.0,27.9,28.05,SSW,202,1.3,1.3,78,0.00,,---,0.00,VWS V14.01,2013-02-09 01:33:00,
2013-02-08 20:38:00,34.0,27.9,28.05,SE,135,2.7,2.7,78,0.00,,---,0.00,VWS V14.01,2013-02-09 01:38:00,
2013-02-08 20:43:00,34.2,28.0,28.05,SSW,202,1.1,1.1,78,0.00,,---,0.00,VWS V14.01,2013-02-09 01:43:00,
2013-02-08 20:48:00,34.2,28.0,28.05,SSW,202,1.1,1.1,78,0.00,,---,0.00,VWS V14.01,2013-02-09 01:48:00,
2013-02-08 20:53:00,34.3,28.2,28.05,SW,225,1.6,1.6,78,0.00,,---,0.00,VWS V14.01,2013-02-09 01:53:00,
2013-02-08 20:59:00,34.3,28.2,28.05,NNW,338,2.7,2.7,78,0.00,,---,0.00,VWS V14.01,2013-02-09 01:59:00,
2013-02-08 21:04:00,34.3,28.2,28.08,NNW,338,2.7,2.7,78,0.00,,---,0.00,VWS V14.01,2013-02-09 02:04:00,
2013-02-08 21:09:00,34.3,28.2,28.08,NNW,338,2.7,2.7,78,0.00,,---,0.00,VWS V14.01,2013-02-09 02:09:00,
2013-02-08 21:14:00,34.5,28.4,28.08,NNW,338,2.7,2.7,78,0.00,,---,0.00,VWS V14.01,2013-02-09 02:14:00,
2013-02-08 21:19:00,34.3,28.2,28.08,NNW,338,2.7,2.7,78,0.00,,---,0.00,VWS V14.01,2013-02-09 02:19:00,
2013-02-08 21:24:00,34.3,28.5,28.08,NNW,338,2.7,2.7,79,0.00,,---,0.00,VWS V14.01,2013-02-09 02:24:00,
2013-02-08 21:29:00,34.3,28.5,28.08,NNW,338,2.7,2.7,79,0.00,,---,0.00,VWS V14.01,2013-02-09 02:29:00,
2013-02-08 21:34:00,34.0,28.2,28.08,ENE,68,2.9,2.9,79,0.00,,---,0.00,VWS V14.01,2013-02-09 02:34:00,
2013-02-08 21:39:00,34.0,28.2,28.08,ESE,112,1.1,1.1,79,0.00,,---,0.00,VWS V14.01,2013-02-09 02:39:00,
2013-02-08 21:44:00,34.0,27.9,28.08,ESE,112,1.1,1.1,78,0.00,,---,0.00,VWS V14.01,2013-02-09 02:44:00,
2013-02-08 21:49:00,34.0,27.9,28.08,ESE,112,1.1,1.1,78,0.00,,---,0.00,VWS V14.01,2013-02-09 02:49:00,
2013-02-08 21:54:00,33.8,28.0,28.08,East,90,0.0,0.0,79,0.00,,---,0.00,VWS V14.01,2013-02-09 02:54:00,
2013-02-08 21:59:00,33.4,27.3,28.08,WNW,292,1.3,1.3,78,0.00,,---,0.00,VWS V14.01,2013-02-09 02:59:00,
2013-02-08 22:04:00,33.3,27.1,28.08,ESE,112,0.9,0.9,78,0.00,,---,0.00,VWS V14.01,2013-02-09 03:04:00,
2013-02-08 22:09:00,33.1,27.0,28.08,East,90,0.0,0.0,78,0.00,,---,0.00,VWS V14.01,2013-02-09 03:09:00,
2013-02-08 22:14:00,32.7,26.6,28.08,East,90,0.0,0.0,78,0.00,,---,0.00,VWS V14.01,2013-02-09 03:14:00,
2013-02-08 22:19:00,32.7,26.9,28.08,SE,135,1.1,1.1,79,0.00,,---,0.00,VWS V14.01,2013-02-09 03:19:00,
2013-02-08 22:24:00,32.5,26.8,28.08,SSE,158,2.0,2.0,79,0.00,,---,0.00,VWS V14.01,2013-02-09 03:24:00,
2013-02-08 22:30:00,32.7,26.9,28.08,SSW,202,2.2,2.2,79,0.00,,---,0.00,VWS V14.01,2013-02-09 03:30:00,
2013-02-08 22:35:00,32.5,27.1,28.08,ESE,112,1.3,1.3,80,0.00,,---,0.00,VWS V14.01,2013-02-09 03:35:00,
2013-02-08 22:40:00,32.5,27.1,28.08,SSE,158,0.0,0.0,80,0.00,,---,0.00,VWS V14.01,2013-02-09 03:40:00,
2013-02-08 22:45:00,32.5,27.1,28.08,SSE,158,0.0,1.1,80,0.00,,---,0.00,VWS V14.01,2013-02-09 03:45:00,
2013-02-08 22:50:00,32.5,27.1,28.08,SSW,202,0.0,0.0,80,0.00,,---,0.00,VWS V14.01,2013-02-09 03:50:00,
2013-02-08 22:55:00,32.5,27.1,28.08,SSE,158,1.3,1.3,80,0.00,,---,0.00,VWS V14.01,2013-02-09 03:55:00,
2013-02-08 23:00:00,32.5,27.4,28.08,ESE,112,2.7,2.7,81,0.00,,---,0.00,VWS V14.01,2013-02-09 04:00:00,
2013-02-08 23:05:00,32.5,27.4,28.05,SSW,202,2.5,2.5,81,0.00,,---,0.00,VWS V14.01,2013-02-09 04:05:00,
2013-02-08 23:10:00,32.5,27.4,28.05,WNW,292,1.6,2.7,81,0.00,,---,0.00,VWS V14.01,2013-02-09 04:10:00,
2013-02-08 23:15:00,32.7,27.8,28.05,SE,135,0.0,0.9,82,0.00,,---,0.00,VWS V14.01,2013-02-09 04:15:00,
2013-02-08 23:20:00,32.7,27.5,28.05,SSE,158,1.1,1.3,81,0.00,,---,0.00,VWS V14.01,2013-02-09 04:20:00,
2013-02-08 23:25:00,32.7,27.8,28.05,East,90,2.5,2.5,82,0.00,,---,0.00,VWS V14.01,2013-02-09 04:25:00,
2013-02-08 23:30:00,32.7,27.8,28.05,ESE,112,1.1,1.3,82,0.00,,---,0.00,VWS V14.01,2013-02-09 04:30:00,
2013-02-08 23:35:00,32.7,27.8,28.05,East,90,2.2,2.2,82,0.00,,---,0.00,VWS V14.01,2013-02-09 04:35:00,
2013-02-08 23:40:00,32.7,27.8,28.05,WSW,248,0.0,1.3,82,0.00,,---,0.00,VWS V14.01,2013-02-09 04:40:00,
2013-02-08 23:45:00,32.5,27.7,28.05,WNW,292,2.0,2.0,82,0.00,,---,0.00,VWS V14.01,2013-02-09 04:45:00,
2013-02-08 23:50:00,32.5,27.7,28.08,WSW,248,0.0,0.0,82,0.00,,---,0.00,VWS V14.01,2013-02-09 04:50:00,
2013-02-08 23:55:00,32.5,27.7,28.08,SSW,202,1.1,1.1,82,0.00,,---,0.00,VWS V14.01,2013-02-09 04:55:00,